Weather History for Jasper, TX

Change the Weather History Date:

Saturday, April 12, 2014

  Actual Average (KLFK) Record (KLFK)
Temperature  
Mean Temperature 70 °F 66 °F  
Max Temperature 79 °F 78 °F 93 °F (1936)
Min Temperature 60 °F 54 °F 37 °F (1913)
Degree Days  
Heating Degree Days 0 3  
Month to date heating degree days 41  
Since 1 July heating degree days 1885  
Cooling Degree Days 4 3  
Month to date cooling degree days 34  
Year to date cooling degree days 94  
Growing Degree Days 20 (Base 50)    
Moisture  
Dew Point 60 °F    
Average Humidity 77    
Maximum Humidity 96    
Minimum Humidity 50    
Precipitation  
Precipitation 0.00 in 0.10 in 3.04 in (1969)
Month to date precipitation 1.19  
Year to date precipitation 13.02  
Snow  
Snow 0.00 in - - ()
Month to date snowfall  
Since 1 July snowfall  
Snow Depth -    
Sea Level Pressure  
Sea Level Pressure 30.04 in    
Wind  
Wind Speed 4 mph (SSE)    
Max Wind Speed 14 mph    
Max Gust Speed 24 mph    
Visibility 10 miles    
Events      
T = Trace of Precipitation, MM = Missing Value Source: NWS Daily Summary

Daily Weather History Graph

Daily Weather History Graph

Search for Another Location

Airport:

Trip Planner

Search our weather history database for the weather conditions in past years. The results will help you decide how hot, cold, wet, or windy it might be!

Date:

Astronomy

Apr. 12, 2014 Rise Set
Actual Time 6:51 AM CDT 7:42 PM CDT
Civil Twilight 6:27 AM CDT 8:07 PM CDT
Nautical Twilight 5:58 AM CDT 8:36 PM CDT
Astronomical Twilight 5:28 AM CDT 9:06 PM CDT
Moon 5:30 PM CDT (4/12) 5:08 AM CDT (4/12)
Length of Visible Light 13h 39m
Length of Day
12h 50m
Waxing Gibbous, 93% of the Moon is Illuminated
Apr 12
Waxing Gibbous
Apr 15
Full
Apr 22
Last Quarter
Apr 29
New
May 6
First Quarter

Hourly Weather History & Observations

Time (CDT) Temp. Dew Point Humidity Pressure Visibility Wind Dir Wind Speed Gust Speed Precip Events Conditions
12:15 AM 62.1 °F 59.2 °F 90% 30.08 in 10.0 mi Calm Calm - N/A   Clear
12:35 AM 61.7 °F 59.0 °F 91% 30.08 in 10.0 mi South 3.5 mph - N/A   Clear
12:55 AM 61.3 °F 59.0 °F 92% 30.08 in 10.0 mi Calm Calm - N/A   Clear
1:15 AM 60.8 °F 59.0 °F 94% 30.07 in 10.0 mi Calm Calm - N/A   Clear
1:35 AM 60.4 °F 59.0 °F 95% 30.06 in 10.0 mi Calm Calm - N/A   Clear
1:55 AM 60.4 °F 59.0 °F 95% 30.06 in 10.0 mi SE 3.5 mph - N/A   Clear
2:15 AM 60.8 °F 59.2 °F 94% 30.06 in 10.0 mi SSE 3.5 mph - N/A   Clear
2:35 AM 60.6 °F 59.2 °F 95% 30.06 in 7.0 mi Calm Calm - N/A   Clear
2:55 AM 60.6 °F 59.4 °F 96% 30.06 in 7.0 mi Calm Calm - N/A   Mostly Cloudy
3:15 AM 61.0 °F 59.9 °F 96% 30.06 in 10.0 mi Calm Calm - N/A   Overcast
3:35 AM 61.3 °F 59.9 °F 95% 30.06 in 10.0 mi Calm Calm - N/A   Mostly Cloudy
3:55 AM 61.7 °F 60.3 °F 95% 30.06 in 10.0 mi Calm Calm - N/A   Overcast
4:15 AM 61.7 °F 60.4 °F 96% 30.05 in 10.0 mi Calm Calm - N/A   Overcast
4:35 AM 62.1 °F 60.6 °F 95% 30.05 in 10.0 mi SE 3.5 mph - N/A   Overcast
4:55 AM 62.2 °F 60.8 °F 95% 30.05 in 10.0 mi Calm Calm - N/A   Overcast
5:15 AM 62.6 °F 60.8 °F 94% 30.05 in 10.0 mi SE 3.5 mph - N/A   Overcast
5:35 AM 62.6 °F 60.8 °F 94% 30.05 in 10.0 mi Calm Calm - N/A   Overcast
5:55 AM 62.6 °F 60.8 °F 94% 30.06 in 10.0 mi SE 3.5 mph - N/A   Overcast
6:15 AM 62.4 °F 60.8 °F 94% 30.05 in 7.0 mi Calm Calm - N/A   Overcast
6:35 AM 62.2 °F 60.8 °F 95% 30.06 in 7.0 mi SE 3.5 mph - N/A   Overcast
6:55 AM 62.6 °F 61.0 °F 94% 30.06 in 7.0 mi SE 4.6 mph - N/A   Overcast
7:15 AM 62.8 °F 61.2 °F 94% 30.06 in 5.0 mi SE 5.8 mph - N/A   Overcast
7:35 AM 63.0 °F 61.3 °F 94% 30.07 in 5.0 mi SE 4.6 mph - N/A   Overcast
7:55 AM 63.3 °F 61.7 °F 94% 30.07 in 7.0 mi SE 4.6 mph - N/A   Overcast
8:15 AM 63.7 °F 61.9 °F 94% 30.08 in 7.0 mi SE 5.8 mph - N/A   Overcast
8:35 AM 64.4 °F 62.2 °F 93% 30.09 in 7.0 mi SSE 5.8 mph - N/A   Overcast
8:55 AM 65.1 °F 62.6 °F 92% 30.09 in 7.0 mi SSE 5.8 mph - N/A   Overcast
9:15 AM 65.8 °F 62.8 °F 90% 30.10 in 10.0 mi SSE 6.9 mph - N/A   Overcast
9:35 AM 66.6 °F 63.0 °F 88% 30.10 in 10.0 mi SSE 5.8 mph - N/A   Overcast
9:55 AM 68.7 °F 63.9 °F 84% 30.11 in 10.0 mi South 6.9 mph - N/A   Mostly Cloudy
10:15 AM 70.3 °F 63.9 °F 80% 30.11 in 10.0 mi SSE 8.1 mph - N/A   Mostly Cloudy
10:35 AM 70.3 °F 63.5 °F 79% 30.11 in 10.0 mi South 6.9 mph - N/A   Mostly Cloudy
10:55 AM 71.6 °F 63.1 °F 75% 30.11 in 10.0 mi SSW 9.2 mph - N/A   Overcast
11:15 AM 72.1 °F 62.4 °F 71% 30.11 in 10.0 mi South 11.5 mph 16.1 mph N/A   Mostly Cloudy
11:35 AM 73.4 °F 61.7 °F 67% 30.10 in 10.0 mi South 9.2 mph - N/A   Mostly Cloudy
11:55 AM 74.8 °F 61.2 °F 62% 30.10 in 10.0 mi SSE 8.1 mph 17.3 mph N/A   Mostly Cloudy
12:15 PM 75.4 °F 61.2 °F 61% 30.09 in 10.0 mi SE 10.4 mph 17.3 mph N/A   Scattered Clouds
12:35 PM 76.1 °F 60.3 °F 58% 30.08 in 10.0 mi South 13.8 mph 21.9 mph N/A   Mostly Cloudy
12:55 PM 77.0 °F 60.3 °F 56% 30.08 in 10.0 mi SSE 11.5 mph 18.4 mph N/A   Mostly Cloudy
1:15 PM 77.2 °F 60.3 °F 56% 30.06 in 10.0 mi SSE 11.5 mph 21.9 mph N/A   Mostly Cloudy
1:35 PM 77.0 °F 60.1 °F 56% 30.06 in 10.0 mi South 13.8 mph 17.3 mph N/A   Mostly Cloudy
1:55 PM 77.4 °F 60.4 °F 56% 30.06 in 10.0 mi SSE 8.1 mph 15.0 mph N/A   Mostly Cloudy
2:15 PM 77.2 °F 59.7 °F 55% 30.05 in 10.0 mi SSE 9.2 mph 16.1 mph N/A   Mostly Cloudy
2:35 PM 77.7 °F 59.9 °F 54% 30.03 in 10.0 mi SSE 10.4 mph 24.2 mph N/A   Mostly Cloudy
2:55 PM 78.1 °F 59.7 °F 53% 30.02 in 10.0 mi South 12.7 mph 20.7 mph N/A   Mostly Cloudy
3:15 PM 78.6 °F 59.5 °F 52% 30.02 in 10.0 mi SSE 10.4 mph 17.3 mph N/A   Scattered Clouds
3:35 PM 78.8 °F 59.5 °F 52% 30.01 in 10.0 mi South 11.5 mph 20.7 mph N/A   Scattered Clouds
3:55 PM 79.7 °F 59.4 °F 50% 29.99 in 10.0 mi South 13.8 mph 19.6 mph N/A   Scattered Clouds
4:15 PM 79.3 °F 59.4 °F 50% 29.98 in 10.0 mi SSE 9.2 mph 16.1 mph N/A   Scattered Clouds
4:35 PM 79.0 °F 58.6 °F 50% 29.98 in 10.0 mi SSE 10.4 mph 19.6 mph N/A   Scattered Clouds
4:55 PM 78.8 °F 58.8 °F 50% 29.97 in 10.0 mi SSE 12.7 mph 21.9 mph N/A   Clear
5:15 PM 78.1 °F 58.1 °F 50% 29.97 in 10.0 mi South 10.4 mph 17.3 mph N/A   Clear
5:35 PM 77.9 °F 58.8 °F 52% 29.96 in 10.0 mi South 12.7 mph 18.4 mph N/A   Clear
5:55 PM 77.4 °F 58.5 °F 52% 29.97 in 10.0 mi South 10.4 mph 17.3 mph N/A   Clear
6:15 PM 76.5 °F 59.2 °F 55% 29.97 in 10.0 mi South 11.5 mph 16.1 mph N/A   Scattered Clouds
6:35 PM 75.2 °F 59.4 °F 58% 29.97 in 10.0 mi South 10.4 mph 18.4 mph N/A   Clear
6:55 PM 74.5 °F 59.4 °F 59% 29.97 in 10.0 mi South 9.2 mph 20.7 mph N/A   Clear
7:15 PM 73.6 °F 59.5 °F 61% 29.96 in 10.0 mi SSE 6.9 mph - N/A   Clear
7:35 PM 72.3 °F 60.1 °F 65% 29.95 in 10.0 mi SSE 8.1 mph - N/A   Clear
7:55 PM 71.2 °F 60.1 °F 68% 29.96 in 10.0 mi SSE 8.1 mph - N/A   Clear
8:15 PM 70.2 °F 59.7 °F 69% 29.97 in 10.0 mi South 9.2 mph - N/A   Clear
8:35 PM 69.4 °F 59.7 °F 71% 29.97 in 10.0 mi SSE 6.9 mph - N/A   Clear
8:55 PM 68.5 °F 59.9 °F 74% 29.97 in 10.0 mi SSE 6.9 mph - N/A   Clear
9:15 PM 67.5 °F 59.9 °F 77% 29.98 in 10.0 mi Calm Calm - N/A   Clear
9:35 PM 66.6 °F 60.1 °F 80% 29.99 in 10.0 mi South 4.6 mph - N/A   Clear
9:55 PM 66.0 °F 60.1 °F 81% 29.99 in 10.0 mi SSE 5.8 mph - N/A   Clear
10:15 PM 65.5 °F 60.1 °F 83% 29.99 in 10.0 mi SSE 4.6 mph - N/A   Clear
10:35 PM 64.8 °F 60.1 °F 85% 29.99 in 10.0 mi SSE 3.5 mph - N/A   Clear
10:55 PM 64.2 °F 60.1 °F 86% 29.99 in 10.0 mi SSE 3.5 mph - N/A   Clear
11:15 PM 63.7 °F 60.3 °F 89% 29.98 in 10.0 mi South 4.6 mph - N/A   Clear
11:35 PM 63.7 °F 60.8 °F 90% 29.98 in 10.0 mi SSE 3.5 mph - N/A   Scattered Clouds
11:55 PM 63.9 °F 61.2 °F 91% 29.97 in 10.0 mi SSE 5.8 mph - N/A   Scattered Clouds